FW7730 Weather Reports


Display with metric or nautical units.
time (UTC)temp
F
wind
direction
speed
MPH
gust
MPH
rain 1hr
in
rain 24hr
in
rain mn
in
humidity
%
barometer
mb
20240416050048 51 317 12.0 25.0 0.00 0.00 0.00 28 1003.1
20240416045546 51 280 10.0 31.0 0.00 0.00 0.00 28 1003.2
20240416045043 51 240 14.0 31.0 0.00 0.00 0.00 28 1003.2
20240416044553 51 235 11.0 27.0 0.00 0.00 0.00 28 1003.3
20240416044044 51 292 9.0 21.0 0.00 0.00 0.00 28 1003.3
20240416043543 51 310 11.0 21.0 0.00 0.00 0.00 28 1003.4
20240416043049 51 250 10.0 23.0 0.00 0.00 0.00 28 1003.5
20240416042543 51 314 8.0 23.0 0.00 0.00 0.00 29 1003.5
20240416042043 51 257 10.0 23.0 0.00 0.00 0.00 29 1003.6
20240416041553 51 332 11.0 27.0 0.00 0.00 0.00 29 1003.7
20240416041043 51 308 9.0 27.0 0.00 0.00 0.00 29 1003.6
20240416040543 51 254 10.0 23.0 0.00 0.00 0.00 30 1003.8
20240416040045 51 263 11.0 19.0 0.00 0.00 0.00 30 1004.0
20240416035543 51 317 10.0 19.0 0.00 0.00 0.00 30 1004.0
20240416035044 51 297 9.0 18.0 0.00 0.00 0.00 30 1004.1
20240416034549 50 288 6.0 20.0 0.00 0.00 0.00 31 1004.0
20240416034039 51 271 7.0 20.0 0.00 0.00 0.00 32 1004.1
20240416033544 51 284 10.0 20.0 0.00 0.00 0.00 31 1004.0
20240416033046 51 258 6.0 20.0 0.00 0.00 0.00 32 1004.3
20240416032540 50 242 11.0 25.0 0.00 0.00 0.00 32 1004.4
20240416032043 50 342 9.0 25.0 0.00 0.00 0.00 33 1004.3
20240416031550 50 309 11.0 35.0 0.00 0.00 0.00 37 1004.3
20240416031040 50 329 14.0 35.0 0.00 0.00 0.00 35 1004.3
20240416030543 50 322 16.0 35.0 0.00 0.00 0.00 36 1004.3
20240416030044 50 352 10.0 21.0 0.00 0.00 0.00 36 1004.5
20240416025543 50 265 9.0 24.0 0.00 0.00 0.00 33 1004.5
20240416025046 50 322 10.0 24.0 0.00 0.00 0.00 37 1004.5
20240416024543 50 15 9.0 17.0 0.00 0.00 0.00 34 1004.6
20240416024046 50 254 7.0 16.0 0.00 0.00 0.00 34 1004.8
20240416023613 50 333 7.0 32.0 0.00 0.00 0.00 34 1004.8
20240416023045 50 330 11.0 32.0 0.00 0.00 0.00 34 1004.9
20240416022543 50 343 12.0 32.0 0.00 0.00 0.00 33 1005.0
20240416022042 50 240 6.0 20.0 0.00 0.00 0.00 34 1005.0
20240416021552 50 323 9.0 20.0 0.00 0.00 0.00 34 1005.1
20240416021040 50 331 10.0 19.0 0.00 0.00 0.00 36 1005.2
20240416020544 50 318 8.0 33.0 0.00 0.00 0.00 38 1005.0
20240416020050 50 277 10.0 33.0 0.00 0.00 0.00 38 1005.2
20240416015543 50 318 8.0 27.0 0.00 0.00 0.00 37 1005.2
20240416015043 50 330 13.0 26.0 0.00 0.00 0.00 35 1005.1
20240416014559 50 323 8.0 26.0 0.00 0.00 0.00 37 1005.0
20240416014043 50 287 11.0 27.0 0.00 0.00 0.00 37 1005.1
20240416013543 50 299 16.0 27.0 0.00 0.00 0.00 36 1005.1
20240416013052 50 349 8.0 24.0 0.00 0.00 0.00 38 1004.8
20240416012544 50 251 11.0 24.0 0.00 0.00 0.00 38 1005.0
20240416012044 50 245 7.0 20.0 0.00 0.00 0.00 37 1005.0
20240416011554 50 298 10.0 20.0 0.00 0.00 0.00 37 1005.0
20240416011043 51 288 7.0 31.0 0.00 0.00 0.00 38 1004.9
20240416010543 51 253 11.0 31.0 0.00 0.00 0.00 39 1004.7
20240416010048 51 360 14.0 24.0 0.00 0.00 0.00 37 1004.4
20240416005542 51 261 8.0 20.0 0.00 0.00 0.00 39 1004.2
20240416005043 52 255 9.0 20.0 0.00 0.00 0.00 40 1004.2
20240416004556 52 287 8.0 20.0 0.00 0.00 0.00 41 1004.3
20240416004042 52 241 10.0 19.0 0.00 0.00 0.00 41 1004.0
20240416003543 52 248 8.0 19.0 0.00 0.00 0.00 41 1004.0
20240416003044 52 304 10.0 20.0 0.00 0.00 0.00 41 1004.1
20240416002543 53 239 10.0 20.0 0.00 0.00 0.00 41 1004.1
20240416002043 54 324 11.0 22.0 0.00 0.00 0.00 39 1004.3
20240416001609 54 281 7.0 22.0 0.00 0.00 0.00 39 1004.0
20240416001044 54 233 10.0 27.0 0.00 0.00 0.00 32 1004.0
20240416000544 54 279 14.0 27.0 0.00 0.00 0.00 32 1004.0
20240416000052 54 324 14.0 34.0 0.00 0.00 0.00 33 1003.8
20240415235544 54 306 14.0 34.0 0.00 0.00 0.00 34 1003.6
20240415235043 54 295 18.0 28.0 0.00 0.00 0.00 34 1003.2
20240415234547 54 265 6.0 15.0 0.00 0.00 0.00 34 1003.0
20240415234040 55 251 8.0 21.0 0.00 0.00 0.00 35 1002.8
20240415233542 55 267 7.0 21.0 0.00 0.00 0.00 33 1002.7
20240415233043 56 200 6.0 30.0 0.00 0.00 0.00 31 1002.8
20240415232545 56 246 9.0 30.0 0.00 0.00 0.00 31 1002.5
20240415232042 57 279 5.0 19.0 0.00 0.00 0.00 29 1002.5
20240415231548 57 228 9.0 19.0 0.00 0.00 0.00 28 1002.5
20240415231042 58 311 9.0 20.0 0.00 0.00 0.00 27 1002.3
20240415230543 59 266 9.0 20.0 0.00 0.00 0.00 25 1002.1
20240415230048 60 291 11.0 23.0 0.00 0.00 0.00 23 1001.9
20240415225542 61 256 12.0 24.0 0.00 0.00 0.00 20 1001.7
20240415225046 62 246 9.0 24.0 0.00 0.00 0.00 19 1001.2
20240415224548 64 321 8.0 21.0 0.00 0.00 0.00 16 1001.2
20240415224043 65 344 8.0 21.0 0.00 0.00 0.00 15 1000.6
20240415223542 68 251 6.0 20.0 0.00 0.00 0.00 13 1000.2
20240415223043 69 350 2.0 10.0 0.00 0.00 0.00 11 1000.0
20240415222542 69 217 3.0 10.0 0.00 0.00 0.00 11 999.5
20240415222043 69 200 4.0 10.0 0.00 0.00 0.00 10 999.4
20240415221610 70 233 3.0 11.0 0.00 0.00 0.00 10 999.2
20240415221042 70 291 5.0 11.0 0.00 0.00 0.00 9 999.2
20240415220539 71 169 3.0 12.0 0.00 0.00 0.00 9 999.1
20240415220048 70 284 4.0 14.0 0.00 0.00 0.00 11 999.1
20240415215546 70 185 6.0 15.0 0.00 0.00 0.00 10 999.1
20240415215043 69 282 6.0 15.0 0.00 0.00 0.00 11 999.1
20240415214544 68 238 5.0 11.0 0.00 0.00 0.00 10 999.0
20240415214041 68 188 4.0 11.0 0.00 0.00 0.00 11 999.1
20240415213544 69 294 5.0 14.0 0.00 0.00 0.00 10 999.2
20240415213045 69 202 5.0 14.0 0.00 0.00 0.00 10 999.3
20240415212543 69 197 6.0 14.0 0.00 0.00 0.00 9 999.2
20240415212042 70 205 6.0 17.0 0.00 0.00 0.00 9 999.2
20240415211545 70 192 5.0 19.0 0.00 0.00 0.00 10 999.1
20240415211042 71 218 7.0 19.0 0.00 0.00 0.00 9 999.2
20240415210542 71 221 9.0 16.0 0.00 0.00 0.00 9 999.2
20240415210047 72 193 8.0 16.0 0.00 0.00 0.00 8 999.0
20240415205539 73 205 7.0 24.0 0.00 0.00 0.00 6 999.2
20240415205042 73 199 7.0 24.0 0.00 0.00 0.00 6 999.2
20240415204544 74 186 9.0 22.0 0.00 0.00 0.00 6 998.8
20240415204045 74 114 5.0 13.0 0.00 0.00 0.00 7 999.0
20240415203542 75 86 6.0 13.0 0.00 0.00 0.00 6 999.2
20240415203045 75 95 6.0 22.0 0.00 0.00 0.00 6 999.2
20240415202542 75 135 6.0 22.0 0.00 0.00 0.00 5 999.5
20240415202042 75 161 8.0 19.0 0.00 0.00 0.00 4 999.5
20240415201544 76 138 7.0 13.0 0.00 0.00 0.00 4 999.7
20240415201039 76 173 5.0 20.0 0.00 0.00 0.00 5 999.7
20240415200543 76 198 4.0 22.0 0.00 0.00 0.00 5 999.8
20240415200045 75 153 7.0 22.0 0.00 0.00 0.00 5 999.9
20240415195543 75 178 10.0 21.0 0.00 0.00 0.00 6 1000.1
20240415195043 74 126 9.0 17.0 0.00 0.00 0.00 6 1000.1
20240415194542 73 185 6.0 13.0 0.00 0.00 0.00 6 1000.2
20240415194046 71 68 2.0 10.0 0.00 0.00 0.00 12 1000.4
20240415193543 70 360 3.0 12.0 0.00 0.00 0.00 14 1000.5
20240415193043 69 315 7.0 13.0 0.00 0.00 0.00 14 1000.4
20240415192542 69 324 6.0 14.0 0.00 0.00 0.00 15 1000.5
20240415192042 69 324 8.0 14.0 0.00 0.00 0.00 15 1000.0
20240415191556 69 350 9.0 15.0 0.00 0.00 0.00 15 1000.5
20240415191044 69 352 7.0 15.0 0.00 0.00 0.00 15 1000.8
20240415190541 69 88 9.0 14.0 0.00 0.00 0.00 15 1001.0
20240415190046 69 51 3.0 10.0 0.00 0.00 0.00 16 1001.4
20240415185540 70 5 4.0 9.0 0.00 0.00 0.00 16 1001.4
20240415185041 70 73 2.0 11.0 0.00 0.00 0.00 14 1001.4
20240415184542 70 58 5.0 11.0 0.00 0.00 0.00 12 1001.6
20240415184045 70 38 6.0 12.0 0.00 0.00 0.00 16 1001.7
20240415183543 70 15 3.0 12.0 0.00 0.00 0.00 18 1001.9
20240415183049 71 56 5.0 8.0 0.00 0.00 0.00 16 1002.1
20240415182541 71 76 2.0 13.0 0.00 0.00 0.00 17 1002.2
20240415182047 70 105 3.0 13.0 0.00 0.00 0.00 17 1002.5
20240415181546 69 64 5.0 9.0 0.00 0.00 0.00 18 1002.7
20240415181042 69 77 3.0 12.0 0.00 0.00 0.00 17 1002.8
20240415180546 69 50 2.0 12.0 0.00 0.00 0.00 17 1002.8
20240415180050 69 63 5.0 12.0 0.00 0.00 0.00 17 1003.0
20240415175541 69 54 3.0 7.0 0.00 0.00 0.00 16 1003.2
20240415175040 70 325 3.0 8.0 0.00 0.00 0.00 17 1003.4
20240415174543 69 32 2.0 9.0 0.00 0.00 0.00 17 1003.6
20240415174041 69 101 3.0 9.0 0.00 0.00 0.00 16 1003.8
20240415173542 68 88 3.0 9.0 0.00 0.00 0.00 16 1003.9
20240415173041 68 57 4.0 9.0 0.00 0.00 0.00 18 1004.0
20240415172544 68 69 3.0 10.0 0.00 0.00 0.00 19 1004.3
20240415172042 67 344 4.0 10.0 0.00 0.00 0.00 19 1004.4
20240415171603 67 105 1.0 8.0 0.00 0.00 0.00 17 1004.6
20240415171042 67 75 4.0 8.0 0.00 0.00 0.00 18 1004.7
20240415170542 66 39 2.0 6.0 0.00 0.00 0.00 18 1004.7
20240415170045 65 106 3.0 8.0 0.00 0.00 0.00 19 1004.8
20240415165544 65 23 3.0 8.0 0.00 0.00 0.00 20 1004.9
20240415165041 65 48 3.0 8.0 0.00 0.00 0.00 21 1005.1
20240415164601 64 355 3.0 6.0 0.00 0.00 0.00 20 1005.2
20240415164041 63 59 3.0 5.0 0.00 0.00 0.00 21 1005.3
20240415163541 63 56 1.0 3.0 0.00 0.00 0.00 22 1005.4
20240415163043 62 54 0.0 3.0 0.00 0.00 0.00 23 1005.6
20240415162541 62 0 1.0 3.0 0.00 0.00 0.00 23 1005.6
20240415162042 62 0 1.0 4.0 0.00 0.00 0.00 24 1005.7
20240415161545 62 49 0.0 4.0 0.00 0.00 0.00 23 1005.8
20240415161041 62 53 1.0 4.0 0.00 0.00 0.00 24 1005.8
20240415160540 62 0 1.0 5.0 0.00 0.00 0.00 23 1005.9
20240415160043 62 67 1.0 5.0 0.00 0.00 0.00 23 1005.8
20240415155541 62 57 1.0 6.0 0.00 0.00 0.00 22 1006.0
20240415155040 62 53 1.0 6.0 0.00 0.00 0.00 22 1006.0
20240415154542 62 47 2.0 6.0 0.00 0.00 0.00 21 1006.2
20240415154041 62 80 2.0 5.0 0.00 0.00 0.00 21 1006.2
20240415153541 61 69 2.0 5.0 0.00 0.00 0.00 21 1006.4
20240415153046 62 26 2.0 5.0 0.00 0.00 0.00 20 1006.3
20240415152541 61 64 1.0 5.0 0.00 0.00 0.00 21 1006.5
20240415152042 61 52 1.0 6.0 0.00 0.00 0.00 22 1006.5
20240415151600 61 99 2.0 6.0 0.00 0.00 0.00 22 1006.6
20240415151041 60 66 2.0 6.0 0.00 0.00 0.00 22 1006.6
20240415150544 60 75 2.0 6.0 0.00 0.00 0.00 21 1006.6
20240415150047 60 77 3.0 5.0 0.00 0.00 0.00 22 1006.7
20240415145546 60 46 2.0 10.0 0.00 0.00 0.00 22 1006.7
20240415145044 60 0 3.0 10.0 0.00 0.00 0.00 22 1006.9
20240415144551 60 66 4.0 8.0 0.00 0.00 0.00 26 1006.8
20240415144044 59 50 2.0 4.0 0.00 0.00 0.00 24 1006.7
20240415143544 59 0 1.0 3.0 0.00 0.00 0.00 21 1006.9
20240415143051 58 0 0.0 3.0 0.00 0.00 0.00 22 1007.0
20240415142543 57 291 0.0 3.0 0.00 0.00 0.00 23 1007.2
20240415142045 56 291 0.0 2.0 0.00 0.00 0.00 24 1007.1
20240415141548 55 0 0.0 2.0 0.00 0.00 0.00 24 1007.2
20240415141047 54 0 0.0 2.0 0.00 0.00 0.00 24 1007.2
20240415140541 53 292 0.0 2.0 0.00 0.00 0.00 26 1007.2
20240415140102 52 0 0.0 6.0 0.00 0.00 0.00 27 1007.2
20240415135544 51 0 0.0 8.0 0.00 0.00 0.00 30 1007.4
20240415135044 51 277 3.0 8.0 0.00 0.00 0.00 30 1007.3
20240415134556 50 282 4.0 8.0 0.00 0.00 0.00 31 1007.3
20240415134051 50 286 2.0 9.0 0.00 0.00 0.00 31 1007.2
20240415133545 49 261 4.0 9.0 0.00 0.00 0.00 31 1007.2
20240415133050 49 298 3.0 9.0 0.00 0.00 0.00 29 1007.3
20240415132543 48 279 4.0 9.0 0.00 0.00 0.00 29 1007.2
20240415132044 47 294 5.0 8.0 0.00 0.00 0.00 29 1007.2
20240415131548 47 302 3.0 8.0 0.00 0.00 0.00 29 1007.1
20240415131044 47 299 4.0 9.0 0.00 0.00 0.00 29 1007.2
20240415130543 46 300 5.0 10.0 0.00 0.00 0.00 28 1007.1
20240415130052 46 270 5.0 10.0 0.00 0.00 0.00 29 1007.2
20240415125545 46 298 5.0 10.0 0.00 0.00 0.00 28 1007.2
20240415125044 46 281 6.0 12.0 0.00 0.00 0.00 28 1007.1
20240415124631 46 294 7.0 12.0 0.00 0.00 0.00 28 1007.2
20240415124041 46 296 4.0 9.0 0.00 0.00 0.00 29 1007.2
20240415123545 46 284 5.0 9.0 0.00 0.00 0.00 28 1007.3
20240415123053 46 278 3.0 6.0 0.00 0.00 0.00 27 1007.2
20240415122544 46 282 2.0 4.0 0.00 0.00 0.00 28 1007.2
20240415122044 46 293 1.0 7.0 0.00 0.00 0.00 27 1007.2
20240415121606 47 288 3.0 7.0 0.00 0.00 0.00 27 1007.3
20240415121041 47 300 2.0 5.0 0.00 0.00 0.00 26 1007.2
20240415120545 48 295 2.0 4.0 0.00 0.00 0.00 25 1007.3
20240415120110 48 288 1.0 4.0 0.00 0.00 0.00 25 1007.2
20240415115543 48 288 1.0 4.0 0.00 0.00 0.00 24 1007.4
20240415115045 49 288 2.0 4.0 0.00 0.00 0.00 24 1007.4
20240415114547 49 302 1.0 4.0 0.00 0.00 0.00 23 1007.3
20240415114046 49 304 2.0 4.0 0.00 0.00 0.00 23 1007.3
20240415113544 50 304 1.0 8.0 0.00 0.00 0.00 22 1007.3
20240415113045 50 304 2.0 8.0 0.00 0.00 0.00 21 1007.4
20240415112544 50 260 3.0 9.0 0.00 0.00 0.00 21 1007.4
20240415112042 50 287 3.0 9.0 0.00 0.00 0.00 20 1007.4
20240415111545 50 317 3.0 8.0 0.00 0.00 0.00 19 1007.3
20240415111044 49 5 2.0 5.0 0.00 0.00 0.00 21 1007.4
20240415110544 50 297 2.0 5.0 0.00 0.00 0.00 22 1007.4
20240415110044 50 296 2.0 8.0 0.00 0.00 0.00 23 1007.5
20240415105548 51 344 3.0 9.0 0.00 0.00 0.00 23 1007.7
20240415105046 51 347 4.0 10.0 0.00 0.00 0.00 24 1007.6
20240415104545 51 344 4.0 11.0 0.00 0.00 0.00 23 1007.6
20240415104044 51 36 5.0 13.0 0.00 0.00 0.00 19 1007.4
20240415103544 51 315 6.0 13.0 0.00 0.00 0.00 19 1007.2
20240415103047 51 282 7.0 14.0 0.00 0.00 0.00 19 1007.4
20240415102544 51 294 7.0 14.0 0.00 0.00 0.00 19 1007.2
20240415102045 51 310 7.0 13.0 0.00 0.00 0.00 19 1007.3
20240415101547 51 296 8.0 14.0 0.00 0.00 0.00 19 1007.4
20240415101044 51 292 8.0 14.0 0.00 0.00 0.00 19 1007.3
20240415100540 51 326 7.0 15.0 0.00 0.00 0.00 19 1007.4
20240415100054 51 304 7.0 16.0 0.00 0.00 0.00 20 1007.3
20240415095540 51 281 8.0 16.0 0.00 0.00 0.00 19 1007.3
20240415095044 51 295 5.0 12.0 0.00 0.00 0.00 20 1007.4
20240415094553 52 292 7.0 12.0 0.00 0.00 0.00 20 1007.5
20240415094045 52 279 5.0 9.0 0.00 0.00 0.00 19 1007.5
20240415093543 53 277 3.0 8.0 0.00 0.00 0.00 19 1007.6
20240415093044 54 312 3.0 8.0 0.00 0.00 0.00 18 1007.6
20240415092544 55 336 2.0 11.0 0.00 0.00 0.00 17 1007.8
20240415092044 55 16 5.0 11.0 0.00 0.00 0.00 16 1007.7
20240415091547 55 23 3.0 10.0 0.00 0.00 0.00 17 1007.7
20240415091043 55 304 3.0 10.0 0.00 0.00 0.00 17 1007.7
20240415090543 56 355 3.0 8.0 0.00 0.00 0.00 17 1007.6
20240415090117 57 43 1.0 8.0 0.00 0.00 0.00 16 1007.6
20240415085543 57 332 2.0 6.0 0.00 0.00 0.00 15 1007.6
20240415085047 58 43 2.0 6.0 0.00 0.00 0.00 15 1007.4
20240415084552 58 119 2.0 9.0 0.00 0.00 0.00 14 1007.5
20240415084047 58 0 1.0 9.0 0.00 0.00 0.00 14 1007.5
20240415083540 58 286 0.0 10.0 0.00 0.00 0.00 15 1007.6
20240415083051 58 267 2.0 11.0 0.00 0.00 0.00 14 1007.6
20240415082544 58 221 3.0 12.0 0.00 0.00 0.00 14 1007.6
20240415082044 58 293 5.0 12.0 0.00 0.00 0.00 15 1007.7
20240415081555 58 276 5.0 16.0 0.00 0.00 0.00 15 1007.6
20240415081044 58 219 7.0 16.0 0.00 0.00 0.00 16 1007.6
20240415080544 58 288 8.0 16.0 0.00 0.00 0.00 15 1007.8
20240415080045 56 287 5.0 15.0 0.00 0.00 0.00 15 1007.8
20240415075544 54 226 7.0 15.0 0.00 0.00 0.00 16 1008.0
20240415075045 53 277 3.0 10.0 0.00 0.00 0.00 17 1008.2
20240415074605 52 206 1.0 4.0 0.00 0.00 0.00 21 1008.3
20240415074043 52 0 0.0 3.0 0.00 0.00 0.00 22 1008.5
20240415073543 52 38 0.0 3.0 0.00 0.00 0.00 22 1008.6
20240415073057 52 0 1.0 3.0 0.00 0.00 0.00 23 1008.7
20240415072543 53 38 1.0 5.0 0.00 0.00 0.00 23 1008.8
20240415072046 53 346 1.0 11.0 0.00 0.00 0.00 24 1008.9
20240415071547 53 317 3.0 11.0 0.00 0.00 0.00 23 1009.0
20240415071043 53 290 2.0 9.0 0.00 0.00 0.00 23 1009.1
20240415070543 53 303 4.0 10.0 0.00 0.00 0.00 23 1009.1
20240415070045 53 278 4.0 12.0 0.00 0.00 0.00 23 1009.3
20240415065543 53 264 7.0 12.0 0.00 0.00 0.00 24 1009.3
20240415065041 53 254 5.0 10.0 0.00 0.00 0.00 23 1009.3
20240415064552 53 305 3.0 10.0 0.00 0.00 0.00 23 1009.4
20240415064040 54 273 4.0 10.0 0.00 0.00 0.00 24 1009.5
20240415063544 54 313 4.0 9.0 0.00 0.00 0.00 23 1009.5
20240415063042 54 252 4.0 8.0 0.00 0.00 0.00 23 1009.6
20240415062541 54 286 3.0 10.0 0.00 0.00 0.00 22 1009.6
20240415062047 55 278 4.0 10.0 0.00 0.00 0.00 22 1009.7
20240415061549 54 302 5.0 10.0 0.00 0.00 0.00 22 1009.8
20240415061043 55 298 3.0 8.0 0.00 0.00 0.00 23 1009.8
20240415060543 55 297 2.0 9.0 0.00 0.00 0.00 23 1009.8
20240415060056 55 294 4.0 9.0 0.00 0.00 0.00 22 1009.7
20240415055544 55 295 5.0 9.0 0.00 0.00 0.00 22 1009.8
20240415055043 55 296 4.0 13.0 0.00 0.00 0.00 22 1009.9
20240415054547 55 298 6.0 13.0 0.00 0.00 0.00 22 1009.9
20240415054044 55 279 6.0 11.0 0.00 0.00 0.00 22 1009.9
20240415053543 55 256 6.0 12.0 0.00 0.00 0.00 22 1010.0
20240415053044 55 290 5.0 12.0 0.00 0.00 0.00 22 1010.0
20240415052544 56 284 6.0 12.0 0.00 0.00 0.00 22 1010.1
20240415052044 56 297 6.0 10.0 0.00 0.00 0.00 22 1010.2
20240415051604 56 294 3.0 10.0 0.00 0.00 0.00 22 1010.2
20240415051045 56 300 5.0 13.0 0.00 0.00 0.00 22 1010.2
20240415050541 56 283 5.0 13.0 0.00 0.00 0.00 22 1010.3